SCP
0 0 0 0 0 0 0 0 0 0 0 0 0 0 0 0 0 0 0 0 0 0 0 0 0 0 0 0 0 0 0 0 0 0 0 0 0 0 0 0 0 0 0 0 0 0 0
0 0 0 0 0 0 0 0 0 0 0 0 0 0 0 0 0 0 0 0 0 0 0 0 0 0 0 0 0 0 0 0 0 0 0 0 0 0 0 0 0 0 0 0 0 0 0
0 0 0 0 0 0 0 0 0 0 0 -0 0 0 0 0 0 0 0 0 0 0 0 0 0 0 0 0 0 0 0 0 0 0 0 0 0 0 0 0 0 0 0 0 0 0 0
0 0 0 0 0 0 0 0 0 0 -0 -0 0 0 0 0 0 0 0 0 0 0 0 0 0 0 0 0 0 0 0 0 0 0 0 0 0 0 0 0 0 0 0 0 0 0 0
0 0 0 0 0 0 0 0 0 0 -0 -0 -0 0 0 0 0 0 0 0 0 0 0 0 0 0 0 0 0 0 0 0 0 0 0 0 0 0 0 0 0 0 0 0 0 0 0
0 0 0 0 0 0 0 0 0 0 0 -0 -0 0 0 0 0 0 0 0 0 0 0 0 0 0 0 0 0 0 0 0 0 0 0 0 0 0 0 0 0 0 0 0 0 0 0
0 0 0 0 0 0 0 0 0 -0 0 -0 0 -0 0 0 0 0 0 0 0 0 0 0 0 0 0 0 0 0 0 0 0 0 0 0 0 0 0 0 0 0 0 0 0 0 0
0 0 0 0 0 0 0 0 -0 -0 -0 -0 0 0 0 0 0 0 0 0 0 0 0 0 0 0 0 0 0 0 0 0 0 0 0 0 0 0 0 0 0 0 0 0 0 0 0
0 0 0 0 0 0 0 -0 -0 0 0 -0 0 0 0 0 0 0 0 0 0 0 0 0 0 0 0 0 0 0 0 0 0 0 0 0 0 0 0 0 0 0 0 0 0 0 0
0 0 0 -0 -0 0 -0 -0 -0 0 0 -0 -0 -0 0 0 0 0 0 0 0 0 0 0 0 0 0 0 0 0 0 0 0 0 0 0 0 0 0 0 0 0 0 0 0 0 0
0 0 -0 -0 -0 -0 -0 -0 0 0 0 -0 -0 -0 -0 0 0 0 0 0 0 0 0 0 0 0 0 0 0 0 0 0 0 0 0 0 0 0 0 0 0 0 0 0 0 0 0
0 0 0 0 0 0 -0 -0 0 0 -0 -0 -0 -0 -0 0 0 0 0 0 0 0 0 0 0 0 0 0 0 0 0 0 0 0 0 0 0 0 0 0 0 0 0 0 0 0 0
0 0 0 -0 0 -0 -0 -0 -0 -0 -0 -0 -0 -0 0 0 0 0 0 0 0 0 0 0 0 0 0 0 0 0 0 0 0 0 0 0 0 0 0 0 0 0 0 0 0 0 0
0 0 -0 -0 0 0 -0 -0 -0 -0 -0 -0 -0 -0 -0 0 0 0 0 0 0 0 0 0 -0 0 0 0 0 0 0 0 0 0 0 0 0 0 0 0 0 0 0 0 0 0 0
0 0 -0 -0 -0 -0 -0 -0 -0 -0 -0 -0 -0 0 0 0 0 0 0 0 0 0 0 0 0 -0 0 0 0 0 0 0 0 0 0 0 0 0 0 0 0 0 0 0 0 0 0
0 0 0 0 0 -0 -0 -0 -0 -0 -0 -0 0 0 0 0 0 0 0 0 0 0 0 -0 0 -0 0 0 -0 0 0 0 0 0 0 0 0 0 0 0 0 0 0 0 0 0 0
0 0 0 0 0 0 0 0 -0 0 0 0 -0 0 0 0 0 0 0 0 0 0 0 -0 0 -0 0 0 0 0 0 0 0 0 0 0 0 0 0 0 0 0 0 0 0 0 0
0 0 0 0 0 0 0 -0 -0 -0 0 -0 0 0 0 0 0 0 0 0 0 -0 -0 -0 -0 0 0 0 0 0 0 0 0 0 0 0 0 0 0 0 0 0 0 0 0 0 0
0 0 0 0 0 -0 -0 -0 0 0 0 0 0 0 0 0 0 0 0 -0 -0 -0 -0 -0 -0 -0 0 0 0 0 0 0 0 0 0 0 0 0 0 0 0 0 0 0 0 0 0
0 0 0 0 0 -0 -0 -0 -0 -0 -0 0 0 0 0 0 0 -0 0 0 0 0 0 -0 -0 0 0 0 0 0 0 0 0 0 0 0 0 0 0 0 0 0 0 0 0 0 0
0 0 0 0 0 -0 -0 -0 -0 -0 -0 0 0 0 0 0 0 0 0 0 0 -0 -0 -0 -0 0 0 0 0 0 0 0 0 0 0 0 0 0 0 0 0 0 0 0 0 0 0
0 0 0 0 0 -0 -0 -0 -0 -0 0 0 0 0 0 0 -0 0 0 0 0 0 -0 0 -0 0 0 0 0 0 0 0 0 0 0 0 0 0 0 0 0 0 0 0 0 0 0
-0 0 0 0 0 -0 -0 -0 -0 -0 -0 0 0 -0 0 0 -0 0 0 0 0 0 0 0 -0 -0 0 0 0 0 0 0 0 0 0 0 0 0 0 0 0 0 0 0 0 0 0
0 -0 0 0 -0 -0 -0 -0 -0 -0 0 0 0 0 0 0 0 0 0 0 0 0 0 0 0 -0 -0 -0 0 0 0 0 0 0 0 0 0 0 0 0 0 0 0 0 0 0 0
0 0 0 0 -0 -0 -0 -0 -0 -0 0 0 0 0 0 0 0 0 -0 0 0 0 0 0 0 0 0 -0 0 0 0 0 0 0 0 0 0 0 0 0 0 0 0 0 0 0 0
0 -0 0 -0 -0 -0 -0 -0 -0 -0 0 0 0 0 0 0 0 0 0 0 0 0 0 0 0 0 0 -0 -0 0 0 0 0 0 0 0 0 0 0 0 0 0 0 0 0 0 0
-0 0 -0 0 0 -0 -0 0 0 0 0 0 0 0 0 0 0 0 0 -0 0 0 0 0 0 0 0 0 -0 0 0 -0 0 0 0 0 0 0 0 0 0 0 0 0 0 0 0
-0 -0 -0 0 0 0 0 0 0 0 0 0 0 0 0 0 0 -0 -0 0 0 0 0 0 0 0 0 0 0 0 -0 -0 -0 -0 0 0 0 0 0 0 0 0 0 0 0 0 0
-0 -0 -0 0 0 0 0 0 0 0 0 0 0 0 0 0 0 0 0 0 0 0 0 0 0 0 0 0 0 0 0 0 0 0 0 -0 0 -0 0 0 0 0 0 0 0 0 0
Wind_Speed_500mb
42 45 45 46 45 45 44 43 43 41 41 37 35 30 27 22 17 17 16 15 13 14 22 32 22 16 15 25 31 20 7 29 33 37 37 35 31 19 10 17 12 8 4 18 17 25 26
48 46 45 44 46 48 46 46 47 44 41 42 36 31 29 22 18 13 14 16 14 15 14 23 23 19 17 15 26 31 16 25 33 32 37 50 39 22 9 14 17 10 5 26 19 21 17
46 47 48 50 49 45 47 50 49 46 44 41 40 35 29 26 19 16 13 14 14 16 11 14 18 19 20 29 13 31 29 22 28 34 36 41 29 24 19 6 9 7 7 13 8 9 9
48 51 52 52 53 50 50 49 49 47 46 42 43 38 34 28 21 18 13 13 12 15 11 10 14 17 14 27 39 20 28 35 36 33 31 33 38 37 15 18 4 8 5 2 4 12 5
51 52 52 50 51 50 49 48 49 51 46 43 45 42 34 32 24 17 12 10 11 15 11 7 12 13 13 17 34 39 28 41 39 33 32 34 36 16 15 15 6 9 9 10 5 5 3
50 53 54 54 54 53 50 49 49 48 46 46 47 42 40 31 25 17 10 8 9 12 8 5 11 5 26 13 21 35 35 33 32 37 35 23 13 8 7 14 30 11 6 10 16 1 4
48 52 58 61 63 63 61 55 52 47 44 44 47 42 38 32 27 18 13 7 4 5 17 12 5 7 2 31 19 28 37 34 26 33 10 15 9 18 25 23 3 14 15 15 4 3 2
51 55 59 61 61 61 56 52 48 45 44 40 47 42 36 33 26 22 17 8 7 2 10 26 34 23 32 10 10 31 30 27 24 21 14 9 18 12 18 15 6 20 23 19 5 7 6
49 52 53 56 55 48 29 41 47 42 43 39 43 40 35 32 28 21 16 12 7 4 2 12 25 36 34 23 17 23 24 33 8 23 28 11 12 20 18 18 19 10 32 20 11 6 4
46 49 49 50 47 39 26 39 43 39 41 39 42 39 34 34 24 21 15 14 9 3 9 10 7 14 28 21 15 53 38 26 17 22 33 9 8 22 21 18 17 16 9 16 14 12 21
42 45 44 47 51 44 44 47 43 36 40 38 45 42 42 34 18 23 12 14 9 4 7 6 5 6 18 28 4 9 46 34 16 18 6 12 20 28 26 15 15 5 26 17 9 8 5
39 42 40 44 48 48 48 44 40 44 41 45 43 41 41 26 25 20 17 15 15 11 11 10 0 8 12 19 9 5 27 38 35 8 4 3 26 15 7 20 8 21 19 18 10 6 4
38 38 43 43 44 43 45 46 45 42 46 47 47 47 33 27 25 23 19 22 9 7 8 7 3 5 12 12 12 4 17 21 7 13 10 7 25 9 16 23 23 24 19 6 5 6 3
38 37 42 41 37 38 41 44 49 50 51 52 49 38 32 20 18 17 28 9 4 8 11 3 6 6 8 17 14 3 20 27 16 3 7 10 9 20 10 18 18 33 9 8 8 8 6
29 36 44 42 40 39 40 40 40 40 44 44 42 33 20 16 14 25 12 6 14 12 5 5 7 5 8 12 9 20 22 38 26 17 10 9 4 3 2 9 24 9 5 3 11 4 6
37 39 41 42 41 43 43 42 41 41 41 36 29 20 14 14 15 24 4 10 8 10 4 2 9 12 10 12 18 9 30 35 18 6 12 7 10 4 2 18 8 6 9 7 3 7 3
32 37 39 36 37 35 38 37 33 26 25 26 13 7 8 10 14 7 6 13 10 11 6 9 5 5 15 12 25 18 20 5 17 26 4 13 5 5 4 2 14 10 4 2 8 4 9
24 28 32 34 33 33 31 26 21 21 19 5 4 4 13 16 3 4 4 9 7 10 10 18 8 13 9 7 10 13 14 8 39 26 12 1 9 8 5 2 1 0 13 8 6 5 3
19 20 22 23 21 19 18 16 12 6 5 10 4 7 12 14 3 5 10 8 9 6 8 7 8 3 6 6 8 11 15 4 40 19 17 8 3 8 7 8 7 6 6 8 10 5 2
15 15 14 13 12 9 6 3 2 6 7 3 5 2 5 6 3 8 4 6 5 12 10 11 10 11 8 7 2 13 8 5 12 16 25 13 8 3 13 8 11 9 11 7 10 7 7
12 11 13 12 7 2 5 3 8 13 5 8 3 2 4 3 4 4 5 4 4 5 10 9 6 13 7 2 4 6 9 13 13 10 10 7 7 6 8 10 6 10 20 15 9 10 9
16 15 14 12 7 6 7 3 12 13 13 8 2 8 6 2 4 5 4 3 8 7 7 8 7 18 23 10 8 2 2 6 6 8 7 4 6 5 13 18 11 8 11 15 9 9 11
15 22 22 15 11 8 11 10 12 12 14 6 1 8 1 5 5 5 4 6 4 3 1 7 13 9 22 16 19 32 30 29 18 10 6 8 11 6 3 10 10 7 12 11 8 7 15
8 20 27 19 13 12 8 8 11 11 9 9 5 2 4 5 4 5 5 2 9 8 2 8 15 4 5 14 18 22 33 49 46 32 17 10 9 6 6 5 5 8 7 3 10 10 5
10 13 24 22 17 13 9 5 6 10 7 2 4 4 1 2 3 6 8 5 8 7 6 1 7 13 19 3 2 9 11 11 14 18 23 10 9 8 9 5 7 4 7 12 12 11 8
20 16 19 25 18 14 9 6 3 8 9 7 3 3 3 15 4 3 4 6 3 7 11 10 14 21 12 5 9 7 5 4 5 5 15 11 14 9 6 12 9 8 5 10 8 6 14
23 22 15 16 19 16 13 9 5 3 9 10 5 2 2 11 5 5 5 6 8 7 1 10 17 20 28 8 7 6 2 4 5 7 3 7 7 8 5 4 13 10 8 11 13 10 25
27 22 18 17 17 17 15 13 13 13 13 11 9 3 5 10 9 3 4 6 8 10 4 12 8 12 9 9 5 1 5 0 5 2 6 7 8 5 5 8 6 14 7 14 6 32 33
31 29 23 20 18 16 15 16 18 18 17 13 8 1 4 8 12 12 12 17 13 8 1 8 6 3 4 7 3 4 5 4 2 1 3 4 6 6 8 8 2 10 5 4 26 38 29
Wind_Direction_500mb
304 301 296 292 287 280 274 270 267 261 257 254 249 241 246 249 249 249 234 237 257 266 234 234 243 253 242 219 233 258 267 202 208 220 222 209 179 165 194 182 179 193 278 294 276 296 291
307 308 305 295 285 281 277 272 264 258 255 249 247 243 237 247 243 251 236 231 249 271 249 234 239 253 242 238 228 248 256 214 213 205 212 217 224 177 231 202 186 145 242 276 280 280 277
313 307 300 297 289 282 274 268 261 256 250 244 240 236 233 236 239 240 236 232 244 266 272 240 237 246 251 230 231 236 243 219 209 207 214 209 193 182 200 152 183 148 333 317 234 236 255
313 308 302 296 288 283 274 266 257 254 246 239 237 232 228 229 234 231 228 222 243 270 277 264 232 244 254 247 238 240 219 211 194 200 209 203 188 193 191 132 92 155 143 228 317 185 228
316 311 305 295 287 279 273 268 256 251 244 231 234 227 224 223 230 231 227 220 234 259 272 263 230 205 256 239 248 237 226 207 194 190 180 164 170 170 149 135 121 225 183 166 299 39 217
318 311 307 300 289 282 270 263 253 246 238 226 223 224 217 219 220 226 226 225 243 252 240 215 190 208 249 245 250 233 230 221 186 164 151 157 163 174 160 177 210 177 179 188 197 275 286
322 322 317 308 297 284 270 258 245 238 227 219 212 216 211 212 209 207 207 206 234 240 221 207 216 218 295 220 249 236 230 205 180 163 174 192 179 194 188 194 219 191 198 213 146 51 191
330 330 327 316 310 294 269 243 229 223 215 207 203 208 200 201 194 193 191 197 192 207 295 249 245 251 252 261 272 245 224 210 174 191 125 172 217 191 163 158 136 164 190 201 124 333 153
343 343 340 339 339 332 247 214 203 203 197 192 192 193 190 187 185 184 188 200 187 291 268 275 230 233 232 237 240 254 226 233 262 198 182 181 169 154 151 167 160 187 189 177 193 161 63
358 1 2 7 17 36 109 155 167 176 175 179 177 179 177 178 171 177 185 199 218 231 60 270 221 240 212 207 266 244 243 233 198 207 167 213 166 158 154 177 167 190 158 133 136 179 210
13 18 22 34 48 71 103 128 141 148 156 165 170 173 178 167 165 162 170 177 174 119 29 260 207 194 201 184 72 247 227 211 227 218 150 166 169 163 162 165 152 157 133 105 79 89 130
28 33 39 53 67 84 102 118 128 139 147 155 157 156 152 155 157 155 155 157 128 47 256 328 317 205 171 225 233 280 189 207 210 247 158 233 174 153 151 141 123 118 104 64 51 75 221
44 50 54 65 78 91 104 115 125 132 137 141 144 145 154 154 155 159 160 136 48 130 323 301 336 313 237 181 217 291 217 198 194 152 172 313 163 120 139 133 135 121 121 131 152 183 221
59 65 70 72 79 94 105 115 122 130 140 142 141 149 149 155 156 161 146 59 121 236 228 213 256 280 255 177 218 178 233 207 195 124 130 173 155 173 171 175 167 159 171 144 154 170 142
73 74 75 80 86 92 101 113 124 129 134 142 142 145 139 129 143 156 150 73 208 205 242 260 264 182 244 213 185 180 257 208 188 186 145 152 154 101 237 129 153 156 143 53 106 42 99
76 81 86 89 94 100 105 112 121 133 137 138 143 139 104 134 139 167 114 248 236 220 281 231 237 160 242 191 177 176 204 186 173 174 174 158 109 56 222 106 34 155 137 111 7 125 188
88 86 92 101 102 102 108 114 122 130 139 140 139 128 150 154 161 177 182 232 265 253 208 228 265 256 243 181 193 163 207 143 147 181 2 178 133 123 220 226 143 137 191 123 115 147 156
99 97 100 104 114 116 113 112 116 130 138 176 269 60 160 173 123 29 161 209 290 269 256 248 253 263 237 196 154 165 227 181 160 140 172 67 119 113 83 4 182 266 160 151 119 227 34
110 107 110 118 126 125 116 115 119 139 249 256 221 146 175 185 155 279 291 270 248 276 244 259 256 227 219 257 134 176 204 99 170 140 160 197 85 103 56 28 343 151 140 125 108 70 170
121 115 109 120 121 109 99 79 340 306 306 278 177 63 178 156 147 156 229 254 265 258 273 270 276 310 258 219 238 166 138 106 111 125 158 111 79 9 179 155 135 155 139 133 106 106 176
145 135 118 103 109 7 320 310 337 351 300 318 183 250 193 219 282 235 247 231 270 7 245 300 268 327 296 14 61 87 102 115 74 82 85 94 119 88 23 23 89 137 159 155 145 152 160
195 174 169 171 199 292 330 304 318 333 336 293 231 153 162 150 289 291 309 328 14 349 352 336 25 342 27 54 349 117 100 90 134 38 85 55 139 107 26 6 55 79 128 127 115 127 79
205 204 200 187 213 244 284 294 318 323 321 307 222 128 189 356 334 86 265 295 342 310 62 48 304 333 28 4 33 45 70 77 80 107 103 89 128 89 300 347 57 4 211 154 142 165 140
220 198 199 202 208 229 276 294 317 328 288 286 272 162 151 274 87 263 326 46 14 13 231 351 343 10 0 312 350 47 48 68 53 33 32 117 89 70 151 10 159 250 328 220 133 178 164
189 177 191 204 212 221 235 275 351 14 26 258 257 311 138 152 207 341 345 350 340 17 39 321 359 351 339 144 10 48 356 48 8 36 15 33 114 83 129 145 282 2 175 154 158 225 189
201 202 198 203 203 207 226 216 61 53 52 33 324 301 328 128 314 353 320 353 347 339 346 347 357 3 12 56 44 68 66 278 16 59 337 42 50 103 70 113 179 237 150 156 110 309 174
226 219 206 206 212 224 212 216 225 22 22 15 343 279 272 100 106 121 40 337 16 358 320 328 344 354 6 32 57 71 88 273 58 85 79 18 12 104 94 106 289 239 186 142 98 232 146
230 221 212 213 210 211 224 241 257 270 292 317 331 275 240 109 111 127 60 44 4 19 64 347 355 356 26 51 81 319 90 196 71 223 178 145 128 144 109 76 289 167 111 162 189 141 140
222 225 223 229 233 231 236 247 261 271 271 267 279 0 136 116 120 123 91 81 84 67 7 5 107 34 19 84 67 104 58 30 54 180 322 49 160 181 198 200 321 185 38 167 149 149 151
Wind_Speed_850mb
42 45 45 46 45 45 44 43 43 41 41 37 35 30 27 22 17 17 16 15 13 14 22 32 22 16 15 25 31 20 7 29 33 37 37 35 31 19 10 17 12 8 4 18 17 25 26
48 46 45 44 46 48 46 46 47 44 41 42 36 31 29 22 18 13 14 16 14 15 14 23 23 19 17 15 26 31 16 25 33 32 37 50 39 22 9 14 17 10 5 26 19 21 17
46 47 48 50 49 45 47 50 49 46 44 41 40 35 29 26 19 16 13 14 14 16 11 14 18 19 20 29 13 31 29 22 28 34 36 41 29 24 19 6 9 7 7 13 8 9 9
48 51 52 52 53 50 50 49 49 47 46 42 43 38 34 28 21 18 13 13 12 15 11 10 14 17 14 27 39 20 28 35 36 33 31 33 38 37 15 18 4 8 5 2 4 12 5
51 52 52 50 51 50 49 48 49 51 46 43 45 42 34 32 24 17 12 10 11 15 11 7 12 13 13 17 34 39 28 41 39 33 32 34 36 16 15 15 6 9 9 10 5 5 3
50 53 54 54 54 53 50 49 49 48 46 46 47 42 40 31 25 17 10 8 9 12 8 5 11 5 26 13 21 35 35 33 32 37 35 23 13 8 7 14 30 11 6 10 16 1 4
48 52 58 61 63 63 61 55 52 47 44 44 47 42 38 32 27 18 13 7 4 5 17 12 5 7 2 31 19 28 37 34 26 33 10 15 9 18 25 23 3 14 15 15 4 3 2
51 55 59 61 61 61 56 52 48 45 44 40 47 42 36 33 26 22 17 8 7 2 10 26 34 23 32 10 10 31 30 27 24 21 14 9 18 12 18 15 6 20 23 19 5 7 6
49 52 53 56 55 48 29 41 47 42 43 39 43 40 35 32 28 21 16 12 7 4 2 12 25 36 34 23 17 23 24 33 8 23 28 11 12 20 18 18 19 10 32 20 11 6 4
46 49 49 50 47 39 26 39 43 39 41 39 42 39 34 34 24 21 15 14 9 3 9 10 7 14 28 21 15 53 38 26 17 22 33 9 8 22 21 18 17 16 9 16 14 12 21
42 45 44 47 51 44 44 47 43 36 40 38 45 42 42 34 18 23 12 14 9 4 7 6 5 6 18 28 4 9 46 34 16 18 6 12 20 28 26 15 15 5 26 17 9 8 5
39 42 40 44 48 48 48 44 40 44 41 45 43 41 41 26 25 20 17 15 15 11 11 10 0 8 12 19 9 5 27 38 35 8 4 3 26 15 7 20 8 21 19 18 10 6 4
38 38 43 43 44 43 45 46 45 42 46 47 47 47 33 27 25 23 19 22 9 7 8 7 3 5 12 12 12 4 17 21 7 13 10 7 25 9 16 23 23 24 19 6 5 6 3
38 37 42 41 37 38 41 44 49 50 51 52 49 38 32 20 18 17 28 9 4 8 11 3 6 6 8 17 14 3 20 27 16 3 7 10 9 20 10 18 18 33 9 8 8 8 6
29 36 44 42 40 39 40 40 40 40 44 44 42 33 20 16 14 25 12 6 14 12 5 5 7 5 8 12 9 20 22 38 26 17 10 9 4 3 2 9 24 9 5 3 11 4 6
37 39 41 42 41 43 43 42 41 41 41 36 29 20 14 14 15 24 4 10 8 10 4 2 9 12 10 12 18 9 30 35 18 6 12 7 10 4 2 18 8 6 9 7 3 7 3
32 37 39 36 37 35 38 37 33 26 25 26 13 7 8 10 14 7 6 13 10 11 6 9 5 5 15 12 25 18 20 5 17 26 4 13 5 5 4 2 14 10 4 2 8 4 9
24 28 32 34 33 33 31 26 21 21 19 5 4 4 13 16 3 4 4 9 7 10 10 18 8 13 9 7 10 13 14 8 39 26 12 1 9 8 5 2 1 0 13 8 6 5 3
19 20 22 23 21 19 18 16 12 6 5 10 4 7 12 14 3 5 10 8 9 6 8 7 8 3 6 6 8 11 15 4 40 19 17 8 3 8 7 8 7 6 6 8 10 5 2
15 15 14 13 12 9 6 3 2 6 7 3 5 2 5 6 3 8 4 6 5 12 10 11 10 11 8 7 2 13 8 5 12 16 25 13 8 3 13 8 11 9 11 7 10 7 7
12 11 13 12 7 2 5 3 8 13 5 8 3 2 4 3 4 4 5 4 4 5 10 9 6 13 7 2 4 6 9 13 13 10 10 7 7 6 8 10 6 10 20 15 9 10 9
16 15 14 12 7 6 7 3 12 13 13 8 2 8 6 2 4 5 4 3 8 7 7 8 7 18 23 10 8 2 2 6 6 8 7 4 6 5 13 18 11 8 11 15 9 9 11
15 22 22 15 11 8 11 10 12 12 14 6 1 8 1 5 5 5 4 6 4 3 1 7 13 9 22 16 19 32 30 29 18 10 6 8 11 6 3 10 10 7 12 11 8 7 15
8 20 27 19 13 12 8 8 11 11 9 9 5 2 4 5 4 5 5 2 9 8 2 8 15 4 5 14 18 22 33 49 46 32 17 10 9 6 6 5 5 8 7 3 10 10 5
10 13 24 22 17 13 9 5 6 10 7 2 4 4 1 2 3 6 8 5 8 7 6 1 7 13 19 3 2 9 11 11 14 18 23 10 9 8 9 5 7 4 7 12 12 11 8
20 16 19 25 18 14 9 6 3 8 9 7 3 3 3 15 4 3 4 6 3 7 11 10 14 21 12 5 9 7 5 4 5 5 15 11 14 9 6 12 9 8 5 10 8 6 14
23 22 15 16 19 16 13 9 5 3 9 10 5 2 2 11 5 5 5 6 8 7 1 10 17 20 28 8 7 6 2 4 5 7 3 7 7 8 5 4 13 10 8 11 13 10 25
27 22 18 17 17 17 15 13 13 13 13 11 9 3 5 10 9 3 4 6 8 10 4 12 8 12 9 9 5 1 5 0 5 2 6 7 8 5 5 8 6 14 7 14 6 32 33
31 29 23 20 18 16 15 16 18 18 17 13 8 1 4 8 12 12 12 17 13 8 1 8 6 3 4 7 3 4 5 4 2 1 3 4 6 6 8 8 2 10 5 4 26 38 29
Wind_Direction_850mb
304 301 296 292 287 280 274 270 267 261 257 254 249 241 246 249 249 249 234 237 257 266 234 234 243 253 242 219 233 258 267 202 208 220 222 209 179 165 194 182 179 193 278 294 276 296 291
307 308 305 295 285 281 277 272 264 258 255 249 247 243 237 247 243 251 236 231 249 271 249 234 239 253 242 238 228 248 256 214 213 205 212 217 224 177 231 202 186 145 242 276 280 280 277
313 307 300 297 289 282 274 268 261 256 250 244 240 236 233 236 239 240 236 232 244 266 272 240 237 246 251 230 231 236 243 219 209 207 214 209 193 182 200 152 183 148 333 317 234 236 255
313 308 302 296 288 283 274 266 257 254 246 239 237 232 228 229 234 231 228 222 243 270 277 264 232 244 254 247 238 240 219 211 194 200 209 203 188 193 191 132 92 155 143 228 317 185 228
316 311 305 295 287 279 273 268 256 251 244 231 234 227 224 223 230 231 227 220 234 259 272 263 230 205 256 239 248 237 226 207 194 190 180 164 170 170 149 135 121 225 183 166 299 39 217
318 311 307 300 289 282 270 263 253 246 238 226 223 224 217 219 220 226 226 225 243 252 240 215 190 208 249 245 250 233 230 221 186 164 151 157 163 174 160 177 210 177 179 188 197 275 286
322 322 317 308 297 284 270 258 245 238 227 219 212 216 211 212 209 207 207 206 234 240 221 207 216 218 295 220 249 236 230 205 180 163 174 192 179 194 188 194 219 191 198 213 146 51 191
330 330 327 316 310 294 269 243 229 223 215 207 203 208 200 201 194 193 191 197 192 207 295 249 245 251 252 261 272 245 224 210 174 191 125 172 217 191 163 158 136 164 190 201 124 333 153
343 343 340 339 339 332 247 214 203 203 197 192 192 193 190 187 185 184 188 200 187 291 268 275 230 233 232 237 240 254 226 233 262 198 182 181 169 154 151 167 160 187 189 177 193 161 63
358 1 2 7 17 36 109 155 167 176 175 179 177 179 177 178 171 177 185 199 218 231 60 270 221 240 212 207 266 244 243 233 198 207 167 213 166 158 154 177 167 190 158 133 136 179 210
13 18 22 34 48 71 103 128 141 148 156 165 170 173 178 167 165 162 170 177 174 119 29 260 207 194 201 184 72 247 227 211 227 218 150 166 169 163 162 165 152 157 133 105 79 89 130
28 33 39 53 67 84 102 118 128 139 147 155 157 156 152 155 157 155 155 157 128 47 256 328 317 205 171 225 233 280 189 207 210 247 158 233 174 153 151 141 123 118 104 64 51 75 221
44 50 54 65 78 91 104 115 125 132 137 141 144 145 154 154 155 159 160 136 48 130 323 301 336 313 237 181 217 291 217 198 194 152 172 313 163 120 139 133 135 121 121 131 152 183 221
59 65 70 72 79 94 105 115 122 130 140 142 141 149 149 155 156 161 146 59 121 236 228 213 256 280 255 177 218 178 233 207 195 124 130 173 155 173 171 175 167 159 171 144 154 170 142
73 74 75 80 86 92 101 113 124 129 134 142 142 145 139 129 143 156 150 73 208 205 242 260 264 182 244 213 185 180 257 208 188 186 145 152 154 101 237 129 153 156 143 53 106 42 99
76 81 86 89 94 100 105 112 121 133 137 138 143 139 104 134 139 167 114 248 236 220 281 231 237 160 242 191 177 176 204 186 173 174 174 158 109 56 222 106 34 155 137 111 7 125 188
88 86 92 101 102 102 108 114 122 130 139 140 139 128 150 154 161 177 182 232 265 253 208 228 265 256 243 181 193 163 207 143 147 181 2 178 133 123 220 226 143 137 191 123 115 147 156
99 97 100 104 114 116 113 112 116 130 138 176 269 60 160 173 123 29 161 209 290 269 256 248 253 263 237 196 154 165 227 181 160 140 172 67 119 113 83 4 182 266 160 151 119 227 34
110 107 110 118 126 125 116 115 119 139 249 256 221 146 175 185 155 279 291 270 248 276 244 259 256 227 219 257 134 176 204 99 170 140 160 197 85 103 56 28 343 151 140 125 108 70 170
121 115 109 120 121 109 99 79 340 306 306 278 177 63 178 156 147 156 229 254 265 258 273 270 276 310 258 219 238 166 138 106 111 125 158 111 79 9 179 155 135 155 139 133 106 106 176
145 135 118 103 109 7 320 310 337 351 300 318 183 250 193 219 282 235 247 231 270 7 245 300 268 327 296 14 61 87 102 115 74 82 85 94 119 88 23 23 89 137 159 155 145 152 160
195 174 169 171 199 292 330 304 318 333 336 293 231 153 162 150 289 291 309 328 14 349 352 336 25 342 27 54 349 117 100 90 134 38 85 55 139 107 26 6 55 79 128 127 115 127 79
205 204 200 187 213 244 284 294 318 323 321 307 222 128 189 356 334 86 265 295 342 310 62 48 304 333 28 4 33 45 70 77 80 107 103 89 128 89 300 347 57 4 211 154 142 165 140
220 198 199 202 208 229 276 294 317 328 288 286 272 162 151 274 87 263 326 46 14 13 231 351 343 10 0 312 350 47 48 68 53 33 32 117 89 70 151 10 159 250 328 220 133 178 164
189 177 191 204 212 221 235 275 351 14 26 258 257 311 138 152 207 341 345 350 340 17 39 321 359 351 339 144 10 48 356 48 8 36 15 33 114 83 129 145 282 2 175 154 158 225 189
201 202 198 203 203 207 226 216 61 53 52 33 324 301 328 128 314 353 320 353 347 339 346 347 357 3 12 56 44 68 66 278 16 59 337 42 50 103 70 113 179 237 150 156 110 309 174
226 219 206 206 212 224 212 216 225 22 22 15 343 279 272 100 106 121 40 337 16 358 320 328 344 354 6 32 57 71 88 273 58 85 79 18 12 104 94 106 289 239 186 142 98 232 146
230 221 212 213 210 211 224 241 257 270 292 317 331 275 240 109 111 127 60 44 4 19 64 347 355 356 26 51 81 319 90 196 71 223 178 145 128 144 109 76 289 167 111 162 189 141 140
222 225 223 229 233 231 236 247 261 271 271 267 279 0 136 116 120 123 91 81 84 67 7 5 107 34 19 84 67 104 58 30 54 180 322 49 160 181 198 200 321 185 38 167 149 149 151